カタログに戻る

STARLINK-32020

運用中通信VLEO
NORAD 60201·PAYLOAD·🇺🇸 United States

打ち上げ Jul 3, 2024 から Cape Canaveral Space Force Station

Loading…

次のパス (今後24時間)

TLE

最新Source: CelesTrak SupGP

元期: Sep 14, 2026, 21:37 UTC

1 60201C 24124U   26257.90118056 -.00047815  00000+0 -15369-2 0  2573
2 60201  53.1567 162.2399 0001172 102.1803 283.6892 15.31739805    17

AllMySatでSTARLINK-32020をリアルタイム追跡

Download on the App Store